Regional Weather Roundup
Issued by NWS

Home | Current Version | Previous Version | Graphics & Text | Print | Product List | Glossary Off
Versions: 1 2 3 4 5 6 7 8 9 10 11 12 13 14 15 16 17 18 19 20 21 22 23 24 25 26 27 28 29 30 31 32 33 34 35 36 37 38 39 40 41 42 43 44 45 46 47 48 49 50

000
ASUS43 KTOP 040008
RWRKS

WEATHER ROUNDUP FOR KANSAS
NATIONAL WEATHER SERVICE GOODLAND KS
700 PM CDT THU SEP 03 2015

NOTE:  "FAIR" INDICATES FEW OR NO CLOUDS BELOW 12,000 FEET WITH NO
SIGNIFICANT WEATHER AND/OR OBSTRUCTIONS TO VISIBILITY.

KSZ001>006-013>018-027>032-041>047-040100-
NORTHWEST KANSAS

CITY           SKY/WX    TMP DP  RH WIND       PRES   REMARKS
GOODLAND       CLOUDY    92  49  22 S14       29.79F
6HR MIN TEMP:  89; 6HR MAX TEMP:  98;

HAYS           CLOUDY    93  57  29 S24G32    29.77S
HILL CITY      CLOUDY    93  57  29 S17G29    29.76R
6HR MIN TEMP:  93; 6HR MAX TEMP: 102;

RUSSELL        PTSUNNY   93  58  30 S26G33    29.76S
6HR MIN TEMP:  93; 6HR MAX TEMP: 100;

$$

KSZ061>065-074>080-084>089-040100-
SOUTHWEST KANSAS

CITY           SKY/WX    TMP DP  RH WIND       PRES   REMARKS
DODGE CITY     CLOUDY    90  56  31 S22G30    29.82S
6HR MIN TEMP:  90; 6HR MAX TEMP:  95;

ELKHART          N/A     91  53  27 S13         N/A
GARDEN CITY    PTSUNNY   90  59  35 SE15      29.79S
6HR MIN TEMP:  90; 6HR MAX TEMP:  97;

GREAT BEND     CLOUDY    91  59  33 S21G29    29.78F
LIBERAL        PTSUNNY   93  55  27 S23G31    29.82S
PRATT          CLOUDY    90  54  29 MISG      29.83F
$$

KSZ066>073-081>083-090>101-040100-
SOUTHEAST KANSAS

CITY           SKY/WX    TMP DP  RH WIND       PRES   REMARKS
CHANUTE        CLEAR     84  68  58 S9        29.89F
6HR MIN TEMP:  84; 6HR MAX TEMP:  89;

COFFEYVILLE    CLEAR     84  71  65 S7        29.88S
6HR MIN TEMP:  84; 6HR MAX TEMP:  88;

HUTCHINSON     PTSUNNY   91  61  36 S18G25    29.82F
6HR MIN TEMP:  90; 6HR MAX TEMP:  96;

MEDICINE LODGE   N/A     91  60  35 S13G22    29.81F
NEWTON         MOSUNNY   88  61  40 S15       29.88S
PARSONS        CLEAR     84  71  65 S5        29.90S
6HR MIN TEMP:  84; 6HR MAX TEMP:  88;

WICHITA INTL   PTSUNNY   88  63  43 S15       29.84S
6HR MIN TEMP:  88; 6HR MAX TEMP:  95;

WICHITA JABRA  MOSUNNY   86  63  45 S14       29.85S
6HR MIN TEMP:  86; 6HR MAX TEMP:  91;

WICHITA MCCONL MOSUNNY   87  64  46 SE13      29.85S
WINFIELD       PTCLDY    86  65  49 SE10      29.86F
6HR MIN TEMP:  86; 6HR MAX TEMP:  94;

$$

KSZ007>012-019>026-033>040-048>060-102>105-040100-
NORTHEAST KANSAS

CITY           SKY/WX    TMP DP  RH WIND       PRES   REMARKS
CONCORDIA      PTSUNNY   89  63  41 S16       29.79F
6HR MIN TEMP:  89; 6HR MAX TEMP:  96;

EMPORIA        FAIR      86  66  51 S16       29.86S
6HR MIN TEMP:  86; 6HR MAX TEMP:  92;

LAWRENCE       CLEAR     87  67  51 S9        29.87R
6HR MIN TEMP:  87; 6HR MAX TEMP:  93;

MANHATTAN      CLEAR     91  65  41 S12       29.81S
6HR MIN TEMP:  91; 6HR MAX TEMP:  97;

MARYSVILLE     CLEAR     88  66  48 S10       29.81S
OLATHE IND     CLEAR     84  68  58 S9        29.90S
6HR MIN TEMP:  84; 6HR MAX TEMP:  90;

OLATHE EXE     CLEAR     83  68  60 S8        29.89S
6HR MIN TEMP:  83; 6HR MAX TEMP:  88;

SALINA         PTSUNNY   91  62  37 S17       29.80S
6HR MIN TEMP:  91; 6HR MAX TEMP:  98;

TOPEKA BILLARD CLEAR     86  68  54 SE12      29.85S
6HR MIN TEMP:  86; 6HR MAX TEMP:  93;

TOPEKA FORBES  CLEAR     86  68  54 S9        29.86S
6HR MIN TEMP:  86; 6HR MAX TEMP:  93;

$$


USA.gov is the U.S. government's official web portal to all federal, state and local government web resources and services.